Regional Weather Roundup
Issued by NWS Sioux Falls, SD

Home | Current Version | Previous Version | Graphics & Text | Print | Product List | Glossary Off
Versions: 1 2 3 4 5 6 7 8 9 10 11 12 13 14 15 16 17 18 19 20 21 22 23 24 25 26 27 28 29 30 31 32 33 34 35 36 37 38 39 40 41 42 43 44 45 46 47 48 49 50

000
ASUS43 KFSD 282302
RWRFSD

WEATHER ROUNDUP FOR SE SOUTH DAKOTA/SW MINNESOTA/NW IOWA
NATIONAL WEATHER SERVICE SIOUX FALLS SD
600 PM CDT FRI AUG 28 2015

NOTE: "FAIR" INDICATES FEW OR NO CLOUDS BELOW 12,000 FEET WITH NO
SIGNIFICANT WEATHER AND OR OBSTRUCTIONS TO VISIBILITY.


SDZ038>040-050-052>070-290000-
SOUTHEAST SOUTH DAKOTA

CITY           SKY/WX    TMP DP  RH WIND       PRES   REMARKS
BROOKINGS      MOSUNNY   72  63  73 E7        29.99R
CHAMBERLAIN    SUNNY     76  65  69 CALM      29.97S
HURON          MOSUNNY   77  65  66 SE7       29.94S
MADISON        FAIR      72  66  83 E8        29.98R
MITCHELL       SUNNY     76  66  71 VRB6      29.96R
SIOUX FALLS    PTSUNNY   70  61  73 E12       29.96S
WINNER         FAIR      78  64  61 SE6       29.99S
YANKTON        MOSUNNY   72  64  78 NE14      29.94R
$$

MNZ071-072-080-081-089-090-097-098-290000-
SOUTHWEST MINNESOTA

CITY           SKY/WX    TMP DP  RH WIND       PRES   REMARKS
FAIRMONT       CLOUDY    63  54  72 E12       29.98R
JACKSON        CLOUDY    63  57  82 E13       29.98S
LUVERNE        CLOUDY    68  59  73 E14       29.97S
MARSHALL       PTSUNNY   68  57  68 SE13      29.99R
MONTEVIDEO     MOSUNNY   77  64  65 S7        29.99R
PIPESTONE      CLOUDY    68  61  77 E7        29.98S
REDWOOD FALLS  MOSUNNY   70  59  68 SE9       29.98S
TRACY          PTSUNNY   68  61  78 E7        29.99R
WINDOM         CLOUDY    64  57  77 E10       29.98S
WORTHINGTON    CLOUDY    63  55  77 E12       29.98S
$$

IAZ001>003-012>014-020>022-031-032-NEZ013-014-SDZ071-290000-
NORTHWEST IOWA

CITY           SKY/WX    TMP DP  RH WIND       PRES   REMARKS
CHEROKEE       CLOUDY    62  62 100 NE8       29.91R
DENISON        CLOUDY    72  68  88 NW7       29.84R
ESTHERVILLE    CLOUDY    60  57  89 E14       29.96R
LE MARS        CLOUDY    64  61  88 N14       29.94R
ORANGE CITY    CLOUDY    63  61  94 NE8       29.94R
SHELDON        CLOUDY    63  59  88 NE14      29.94R
SIOUX CITY     CLOUDY    66  60  81 N16       29.91R
SPENCER        CLOUDY    62  57  83 NE15      29.95R
STORM LAKE     CLOUDY    61  61 100 NE13G18   29.91R FOG
$$

ABBREVIATIONS USED IN REMARKS
   TC - TEMPERATURE IN CELSIUS
  WCI - WIND CHILL INDEX
   HX - HEAT INDEX
  VSB - VISIBILITY



USA.gov is the U.S. government's official web portal to all federal, state and local government web resources and services.